Погода в Чернигове

Погода в Чернигове : погода сейчас, прогноз погоды и архив. Всё, что Вы хотите узнать о погоде в Чернигове!

Хотите узнать прогноз погоды в Чернигове? Тогда Вам сюда: Погода в Чернигове

Поиск расширенной информации на нашем сайте:

Другие новости

Новости СМИ2

Главная страница сайта

Новости сайта

03.07.2017

Напоминаем, что на нашем специализированном сайте Метеоцентр.Азия вы можете получить высокодетализированные автоматические прогнозы погоды по пунктам России, СНГ и мира в авиационном формате (включающие направление и скорость ветра, видимость, явления погоды, количество и форму облачности, нижнюю и верхнюю границу облачности).


Погода в Чернигове - сегодня

Время (UTC), дата Ветер
(°,м/с) 
Видим.   Явления Облачность Т
(°С)
Тd
(°С)
f(%) Тe
(°С)
Pmin
(гПа)
dP
(гПа)
Po
(мм)
O2
(г/м3)
Тmin Tmax R s Состояние
почвы
18 17.08.18 070 (В) н/о    4/0 верхняя 
[Ci fib]
+23.5 +18.1 72 +38  1017.9  0.2  753  275    +28.8       
21 17.08.18 060 (СВ) н/о    ясно 
+21.2 +18 82 +35  1018.5  0.5  753  278           
00 18.08.18 тихо ()   н/о  дымка  ясно 
+18.6 +17.1 91 +31  1018.8  0.2  754  280           
03 18.08.18 090 (В) 4000 м  дымка  6/0 средняя 
[Ac trans]
+17.9 +16.9 94 +31  1019.3  0.4  754  281           
06 18.08.18 090 (В) 10 км    6/0 средняя, верхняя 
[Ac trans|Ci fib]
+22.2 +18.9 82 +38  1019.7  0.7  754  277  +17.5         
09 18.08.18 140 (ЮВ) 20000 м    9/3 1000 м верхняя 
[Cu hum|Cs]
+26.6 +20 67 +45  1019.4  -0.1  754  272           
12 18.08.18 140 (ЮВ) 20000 м    9/6 1000 м верхняя 
[Cu med, cong|Cs]
+27.9 +17.8 54 +42  1018.6  -0.8  754  272           
15 18.08.18 090 (В) 10 км  гроза без осадков  9/6 1000 м кучево-дожд., средняя, верхняя 
[Cb calv|Ac trans|Cs]
+25.8 +18.4 64 +41  1018.5  -0.2  754  273           
18 18.08.18 360 (С) н/о  {гроза, ливн. осадки}  8/3 1000 м кучево-дожд., средняя, верхняя 
[Cb calv|Ac trans|Ci fib]
+19.2 +16.7 85 +32  1020.2  1.4  755  280    +28.6  0.0     
21 18.08.18 тихо ()   н/о  зарница  9/3 1000 м кучево-дожд., средняя, верхняя 
[Cb calv|Ac trans|Ci fib]
+18.4 +16.6 89 +30  1020  -0.2  754  281           
00 19.08.18 тихо ()   н/о  дымка{ливн. осадки}  9/0 средняя, верхняя 
[Ac trans|Ci fib]
+16.7 +15.3 91 +26  1020  -0.1  754  283      0.0     
06 19.08.18 150 (ЮВ) 10 км    9/0 средняя, верхняя 
[Ac trans|Ci fib]
+20.5 +18.3 87 +35  1020.4  0.1  755  279  +16    0.0     
09 19.08.18 тихо ()   10 км  в посл. час ливневой дождь  9/1 1000 м кучево-дожд., средняя, верхняя 
[Cb cap|Ac trans|Ci fib]
+21.4 +16.5 74 +33  1020.3  -0.1  755  278           
12 19.08.18 180 (Ю) 20000 м  {ливн. осадки}  8/3 1000 м кучево-дожд., средняя, верхняя 
[Cb cap|Ac trans|Ci fib]
+25.3 +16.9 60 +37  1019.5  -0.6  754  274      0.0     
15 19.08.18 тихо ()   10 км    8/1 1000 м кучево-дожд., средняя 
[Cb cap|Ac trans]
+23.9 +18.7 73 +40  1018.5  -1  754  275           
18 19.08.18 тихо ()   н/о    6/1 1000 м кучево-дожд., средняя 
[Cb cap|Ac trans]
+21.5 +19.3 87 +38  1018.8  0.1  754  277    +25.9  0.0     
21 19.08.18 тихо ()   н/о  дымка  4/0 верхняя 
[Ci fib]
+17.1 +16.6 97 +29  1018.9  -0.1  754  282           
00 20.08.18 тихо ()   н/о  дымка  ясно 
+15.5 +15.2 98 +24  1018.8  -0.2  753  284           
03 20.08.18 360 (С) 4000 м  местами туман поземный  ясно 
+14.4 +14.2 99 +23  1018.6  -0.2  753  285           
06 20.08.18 360 (С) 10 км    ясно 
+20.8 +18.7 88 +36  1018.2  -0.1  753  278  +13.7         
09 20.08.18 270 (З) 10 км    4/4 1000 м 
[Cu hum]
+25.5 +17.7 62 +39  1017.7  -0.3  753  274           
12 20.08.18 300 (СЗ) 20000 м    3/3 1000 м 
[Cu hum]
+27.6 +15.3 47 +37  1016.7  -0.9  752  272           
15 20.08.18 300 (СЗ) 10 км    4/0 верхняя 
[Ci fib]
+27.2 +16.4 52 +38  1015.3  -1.4  751  272           
18 20.08.18 тихо ()   н/о    3/0 средняя 
[Ac trans]
+20.6 +18.9 90 +37  1015.3  0.3  751  277    +28.4       
21 20.08.18 тихо ()   н/о  дымка  ясно 
+16.6 +15.1 91 +25  1015  -0.5  751  282           
Время (UTC), дата Ветер
(°,м/с) 
Видим.   Явления Облачность Т
(°С)
Тd
(°С)
f(%) Тe
(°С)
Pmin
(гПа)
dP
(гПа)
Po
(мм)
O2
(г/м3)
Тmin Tmax R s Состояние
почвы

Для получения пояснительной информации подведите курсор к названию столбца.

ПОГОДА в Чернигове - архив

Всё, что Вы хотите узнать о погоде в Чернигове - удобно и подробно!

Выберите нужную дату (начиная с 1 января 2015* года) и нажмите кнопку "Найти".
Будут отображены архивные сводки погоды по пункту Чернигов, начиная с указанной даты.


Отображать данные в формате CSV (для использования в таблицах Excel)


Внимание! Наш архив погоды предназначен исключительно для личного некоммерческого использования в познавательных целях. Если Вам необходимы официальные справки о состоянии погоды (для производственных, юридических, коммерческих и т.п. целей), обращайтесь в органы Росгидромета.

*Примечание: данная дата относится к архиву по метеостанциям СССР (Россия, СНГ, Балтия).
Архив по метеостанциям Зарубежной Европы и Азии (кроме Китая) хранится 10 дней, по другим регионам земного шара (Китай, Африка, Америка, Австралия, Океания) - 1 день.

Чернигов - район местоположения метеостанции


Название, широта, долгота, высота метеостанции:
Чернигов 51.5°ш. 31.2°д. 141 м над ур. моря [Украина]

Дополнительная информация

В oтличие oт бoльшинства пoгoдных сайтoв мы публикуем пoдрoбную метеoинфoрмацию в детальнoм прoфессиoнальнoм фoрмате.

Характеристики температуры и влажнoсти вoздуха измеряются на высoте 2 м в тени вдали oт зданий и деревьев.
Скoрoсть ветра измеряется на высoте 10 м (на урoвне рoста челoвека скoрoсть ветра ниже в 1.5-2 раза). Если метеoстанция нахoдится в гoрoде или в лесу, тo скoрoсть ветра занижена на 2-4 м/с пo сравнению с oткрытым местoм. Скoрoсть ветра над акватoриями крупных рек и oзёр, а также на вершинах хoлмoв на 2-5 м/с выше, чем в oбычных услoвиях.
Атмoсфернoе давление в разных тoчках местнoсти мoжет значительнo oтличаться oт давления на метеoстанции, в зависимoсти oт услoвий рельефа (при пoдъёме на 10 м давление пoнижается примернo на 1 мм рт.ст.).